Location: Newark
(47.5833°N, 8.1500°E)
Time: 01:54:01
(UTC+00:00)

Transit 2A - Pass Details

Date: 27 October 2020
Orbit: 594 x 964 km, 66.7° (Epoch: 25 November)

Event Time Altitude Azimuth Distance (km) Brightness Sun altitude
Rises 10:53:43 0° 313° (NW) 3,412 9.0 29.3°
Reaches altitude 10° 10:57:08 10° 294° (WNW) 2,395 8.4 29.3°
Maximum altitude 11:00:26 16° 257° (WSW) 1,900 8.3 29.3°
Drops below altitude 10° 11:03:33 10° 219° (SW) 2,230 9.2 29.4°
Sets 11:06:36 0° 198° (SSW) 3,071 10.2 29.4°
